This demonstration page uses our WeatherBlox Daily Observations layout. Learn more.

Hourly Observations for August 24, 2016

Temp ( °F °C ) Dew Point ( °F °C ) Humidity (%) Winds ( mph kmh ) Pressure ( in mb ) Visibility ( mi km ) Precip ( " mm )
12:05 am 00:05 Cloudy with Nearby Thunderstorms 69 20.6 66 18.9 90 90 ENE 23 37 29.88 1012 3 4.82802 0.1 2.54
12:47 am 00:47 Mostly Cloudy 66 18.9 65 18.3 96 96 E 8 13 29.88 1012 10 16.0934 0.12 3.048
12:54 am 00:54 Mostly Cloudy 67 19.4 65 18.3 93 93 ENE 5 7 29.86 1011 10 16.0934 0.12 3.048
1:54 am 01:54 Partly Cloudy 67 19.4 65 18.3 93 93 SE 8 13 29.88 1012 10 16.0934 0 0
2:11 am 02:11 Cloudy 68 20 65 18.3 90 90 SE 9 15 29.88 1012 10 16.0934 0 0
2:54 am 02:54 Cloudy 69 20.6 63 17.2 81 81 S 10 17 29.89 1012 10 16.0934 0 0
3:54 am 03:54 Clear 67 19.4 63 17.2 87 87 S 10 17 29.87 1012 10 16.0934 0 0
4:54 am 04:54 Mostly Cloudy 67 19.4 63 17.2 87 87 Calm 29.88 1012 10 16.0934 0 0
5:54 am 05:54 Mostly Clear 66 18.9 64 17.8 93 93 N 6 9 29.89 1012 10 16.0934 0 0
6:54 am 06:54 Cloudy 68 20 65 18.3 90 90 N 7 11 29.93 1013 10 16.0934 0 0
7:54 am 07:54 Cloudy 70 21.1 66 18.9 87 87 NNW 9 15 29.95 1014 10 16.0934 0 0.0254
8:54 am 08:54 Mostly Sunny 74 23.3 66 18.9 76 76 N 10 17 29.94 1014 10 16.0934 0 0
9:54 am 09:54 Sunny 76 24.4 59 15 56 56 NNE 13 20 29.96 1014 10 16.0934 0 0
10:54 am 10:54 Sunny 79 26.1 59 15 50 50 NE 13 20 29.99 1016 10 16.0934 0 0
11:54 am 11:54 Sunny 80 26.7 61 16.1 52 52 NE 14 22 29.99 1016 10 16.0934 0 0
12:54 pm 12:54 Sunny 82 27.8 60 15.6 47 47 NNE 14 22 30 1016 10 16.0934 0 0
1:54 pm 13:54 Sunny 79 26.1 61 16.1 54 54 NE 8 13 30 1016 10 16.0934 0 0
2:54 pm 14:54 Partly Cloudy with Nearby Thunderstorms 75 23.9 60 15.6 60 60 N 8 13 30.02 1017 10 16.0934 0 0
3:37 pm 15:37 Cloudy with Light Rain 73 22.8 63 17.2 71 71 WNW 6 9 30.03 1017 6 9.65604 0 0.0254
3:54 pm 15:54 Cloudy with Light Rain 72 22.2 63 17.2 73 73 NW 8 13 30.04 1017 8 12.87472 0.02 0.508
4:54 pm 16:54 Cloudy with Light Rain 71 21.7 65 18.3 81 81 NNE 8 13 30.02 1017 10 16.0934 0.02 0.508
5:54 pm 17:54 Cloudy with Light Rain 71 21.7 65 18.3 81 81 NNW 10 17 30.02 1017 10 16.0934 0.01 0.254
6:54 pm 18:54 Cloudy with Light Rain 71 21.7 64 17.8 79 79 ENE 8 13 30.03 1017 10 16.0934 0 0.0254
7:54 pm 19:54 Sunny 69 20.6 64 17.8 84 84 N 6 9 30.04 1017 10 16.0934 0 0.0254
8:54 pm 20:54 Clear 68 20 63 17.2 84 84 N 5 7 30.05 1018 10 16.0934 0 0
9:54 pm 21:54 Clear 66 18.9 62 16.7 87 87 N 6 9 30.05 1018 10 16.0934 0 0
10:54 pm 22:54 Clear 62 16.7 60 15.6 93 93 Calm 30.04 1017 10 16.0934 0 0
11:54 pm 23:54 Clear 62 16.7 60 15.6 93 93 Calm 30.06 1018 10 16.0934 0 0

Powered by AerisWeather